Location: Borea
(45.6167°N, 23.0167°E)
Time: 01:41:12
(UTC+00:00)

OPS 8068 - Pass Details

Date: 01 March 2024
Orbit: 631 x 963 km, 98.3° (Epoch: 13 April)

Event Time Altitude Azimuth Distance (km) Brightness Sun altitude
Rises 16:40:50 0° 9° (N) 3,395 ? -5.3°
Reaches altitude 10° 16:43:10 10° 5° (N) 2,503 ? -5.7°
Maximum altitude 16:48:37 55° 289° (WNW) 1,087 ? -6.6°
Drops below altitude 10° 16:54:25 10° 214° (SW) 2,654 ? -7.6°
Sets 16:56:57 0° 210° (SSW) 3,616 ? -8.1°
